Flag Weather past 2 weeks in Bratislava, Slovakia

Now
41 °F

Light rain. Overcast.


Feels Like: 36 °F
Forecast: 32 / 41 °F
Wind: 7 mph from Southeast

Location: Bratislava Ivanka

Current Time: Nov 24, 2014 at 5:32:49 PM

Latest Report: Nov 24, 2014 at 5:00 PM


Visibility: 6 mi

Pressure: 30.33 "Hg

Humidity: 81%

Dew point: 36 °F

Location of BratislavaLocation

Historic Weather in Bratislava — Graph

°F

Bratislava temperature yesterday

Maximum temperature yesterday: 46 °F (at 12:30 PM)
Minimum temperature yesterday: 41 °F (at 12:00 AM)
Average temperature yesterday: 43 °F

Past Weeks' High & Low Weather Summary

 TemperatureHumidityPressure
High64 °F (Nov 10, 2:00 PM)100% (Nov 19, 8:00 AM)30.42 "Hg (Nov 19, 8:00 AM)
Low34 °F (Nov 21, 7:00 AM)59% (Nov 13, 12:30 PM)29.74 "Hg (Nov 16, 4:00 AM)
Average47 °F84%30.03 "Hg
* Reported Nov 9 4:00 PM — Nov 24 4:30 PM, Bratislava, Weather by CustomWeather, © 2014

Note: Actual official high and low records may vary slightly from our data, if they occured in-between our weather recording intervals... More about our weather records

Advertising

Bratislava weather history for previous 24 hours

 ConditionsComfort  
Time TempWeatherWind HumidityBarometerVisibility
4:30 PM
Nov 24
41 °FLight rain. Passing clouds.7 mph81%30.33 "Hg6 mi
4:00 PM41 °FLight rain. Partly sunny.9 mph81%30.30 "Hg6 mi
3:30 PM43 °FPartly sunny.10 mph76%30.30 "HgN/A
3:00 PM43 °FPartly sunny.9 mph76%30.30 "HgN/A
2:30 PM43 °FPartly sunny.10 mph76%30.30 "HgN/A
2:00 PM43 °FPartly sunny.8 mph76%30.30 "HgN/A
1:30 PM43 °FPartly sunny.8 mph71%30.30 "HgN/A
1:00 PM43 °FPartly sunny.10 mph71%30.30 "HgN/A
12:30 PM45 °FPartly sunny.13 mph66%30.33 "HgN/A
12:00 PM43 °FPartly sunny.14 mph71%30.33 "HgN/A
11:30 AM45 °FPassing clouds.14 mph61%30.33 "HgN/A
11:00 AM43 °FPassing clouds.13 mph71%30.33 "Hg6 mi
10:30 AM43 °FPassing clouds.9 mph71%30.33 "Hg6 mi
10:00 AM41 °FPassing clouds.9 mph76%30.33 "Hg5 mi
9:30 AM39 °FPassing clouds.6 mph87%30.33 "Hg4 mi
9:00 AM39 °FPassing clouds.5 mph81%30.33 "Hg4 mi
8:30 AM37 °FPassing clouds.3 mph87%30.33 "Hg4 mi
8:00 AM36 °FFog.3 mph87%30.33 "Hg3 mi
7:30 AM34 °FFog.3 mph93%30.33 "Hg3 mi
7:00 AM36 °FPassing clouds.5 mph87%30.33 "Hg4 mi
6:30 AM36 °FPassing clouds.6 mph87%30.33 "Hg5 mi
6:00 AM37 °FPassing clouds.6 mph87%30.33 "HgN/A
5:30 AM37 °FPassing clouds.6 mph87%30.33 "HgN/A
5:00 AM39 °FPassing clouds.7 mph81%30.33 "HgN/A
4:30 AM39 °FPassing clouds.8 mph87%30.33 "HgN/A
4:00 AM41 °FOvercast.7 mph81%30.33 "HgN/A
3:30 AM41 °FOvercast.6 mph81%30.36 "HgN/A
3:00 AM41 °FOvercast.8 mph81%30.36 "HgN/A
2:30 AM41 °FOvercast.8 mph81%30.36 "HgN/A
2:00 AM41 °FOvercast.8 mph81%30.36 "HgN/A
1:30 AM41 °FOvercast.9 mph81%30.36 "HgN/A
1:00 AM41 °FOvercast.10 mph81%30.39 "HgN/A
12:30 AM41 °FOvercast.8 mph81%30.39 "HgN/A
12:00 AM43 °FOvercast.8 mph76%30.39 "Hg6 mi
11:30 PM
Nov 23
41 °FOvercast.8 mph81%30.39 "Hg6 mi
11:00 PM41 °FOvercast.7 mph87%30.39 "Hg6 mi
10:30 PM41 °FOvercast.6 mph87%30.39 "Hg6 mi
10:00 PM41 °FOvercast.8 mph87%30.39 "HgN/A
9:30 PM43 °FOvercast.7 mph81%30.39 "HgN/A
9:00 PM43 °FOvercast.9 mph76%30.39 "HgN/A
8:30 PM43 °FOvercast.9 mph76%30.39 "HgN/A
8:00 PM43 °FOvercast.9 mph76%30.42 "HgN/A
7:30 PM43 °FOvercast.8 mph81%30.42 "HgN/A
7:00 PM43 °FOvercast.7 mph81%30.42 "HgN/A
6:30 PM43 °FOvercast.6 mph81%30.39 "HgN/A
6:00 PM43 °FOvercast.6 mph76%30.39 "HgN/A
5:30 PM43 °FOvercast.6 mph81%30.39 "HgN/A
5:00 PM43 °FPassing clouds.6 mph76%30.39 "HgN/A
Weather by CustomWeather, © 2014

See weather overviewHow to use our weather pages